Location: Fort Worth, Tx
(32.7431°N, 97.3695°W)
Time: 00:21:11
(UTC-04:00)

Vanguard 2 - Pass Details

Date: 25 February 2024
Orbit: 552 x 2916 km, 32.9° (Epoch: 24 April)

Event Time Altitude Azimuth Distance (km) Brightness Sun altitude
Rises 22:44:51 0° 269° (W) 4,971 12.4 -42.6°
Reaches altitude 10° 22:47:39 10° 270° (W) 4,247 11.8 -43.2°
Enters shadow 22:59:36 85° 280° (W) 2,514 9.8 -45.5°
